Regional Weather Roundup
Issued by NWS

Home | Current Version | Previous Version | Graphics & Text | Print | Product List | Glossary On
Versions: 1 2 3 4 5 6 7 8 9 10 11 12 13 14 15 16 17 18 19 20 21 22 23 24 25 26 27 28 29 30 31 32 33 34 35 36 37 38 39 40 41 42 43 44 45 46 47 48 49 50
000
ASUS43 KLSX 181907
RWRMO

WEATHER SUMMARY FOR MISSOURI
NATIONAL WEATHER SERVICE SPRINGFIELD MO
100 PM CST THU DEC 18 2014

NOTE: "FAIR" INDICATES FEW OR NO CLOUDS BELOW 12,000 FEET WITH NO
       SIGNIFICANT WEATHER AND/OR OBSTRUCTIONS TO VISIBILITY.
       CURRENT SKY AND/OR WEATHER CONDITIONS ARE NOT AVAILABLE FOR
       CHILLICOTHE AND FARMINGTON.

MOZ001>031-035>038-043-044-053-054-182000-
...NORTHERN AND WESTERN MISSOURI...

CITY           SKY/WX    TMP DP  RH WIND       PRES   REMARKS
KANSAS CTY INT FLURRIES  32  28  85 E6        30.20F WCI  26
KANSAS C DTWN  CLOUDY    33  29  85 NE8       30.21F WCI  26
LEE`S SUMMIT   CLOUDY    33  29  85 NE6       30.20F WCI  28
ST JOSEPH      LGT SNOW  31  27  85 NE3       30.23F FOG
CHILLICOTHE      N/A     30  26  85 E3        30.25F
KIRKSVILLE     CLOUDY    29  25  85 CALM      30.24F FOG

$$
MOZ066>068-077>081-088>096-101>105-182000-
...SOUTHWEST MISSOURI...

CITY           SKY/WX    TMP DP  RH WIND       PRES   REMARKS
SPRINGFIELD    CLOUDY    37  35  92 CALM      30.16F
JOPLIN         CLOUDY    39  36  89 W5        30.17F

$$
MOZ032>034-039>042-045>050-055>058-069>072-182000-
...CENTRAL MISSOURI...

CITY           SKY/WX    TMP DP  RH WIND       PRES   REMARKS
COLUMBIA       CLOUDY    33  29  85 E5        30.21F FOG     WCI  29
JEFFERSON CITY CLOUDY    34  30  85 VRB6      30.23F FOG     WCI  29
ROLLA          CLOUDY    32  30  92 MISG      30.17F FOG
SEDALIA        CLOUDY    33  30  88 E7        30.21F FOG     WCI  27
WHITEMAN AFB   CLOUDY    33  30  89 E5        30.20F WCI  28
WARRENSBURG    CLOUDY    32  30  93 NE5       30.20F FOG     WCI  27
OSAGE BEACH    CLOUDY    34  30  86 E5        30.19F WCI  30

$$
MOZ051-052-059>065-182000-
...EAST CENTRAL MISSOURI...

CITY           SKY/WX    TMP DP  RH WIND       PRES   REMARKS
ST LOUIS INTL  CLOUDY    35  27  72 NE3       30.24F
SPIRIT OF STL  LGT SNOW  32  28  85 E5        30.24F FOG     WCI  27
ST CHARLES     CLOUDY    34  25  69 N6        30.25F WCI  29

$$
MOZ072>076-082>087-097>100-106>115-182000-
...SOUTH CENTRAL AND SOUTHEAST MISSOURI...

CITY           SKY/WX    TMP DP  RH WIND       PRES   REMARKS
CAPE GIRARDEAU CLOUDY    35  33  92 NE6       30.25F
FARMINGTON     CLOUDY    34  32  93 NE3       30.22F
POPLAR BLUFF   CLOUDY    38  32  79 E7        30.22F
WEST PLAINS    CLOUDY    36  32  85 SE3       30.17F

$$


USA.gov is the U.S. government's official web portal to all federal, state and local government web resources and services.